TimeCDT,TemperatureF,Dew PointF,Humidity,Sea Level PressureIn,VisibilityMPH,Wind Direction,Wind SpeedMPH,Gust SpeedMPH,PrecipitationIn,Events,Conditions,WindDirDegrees,DateUTC
12:14 AM,82.4,77.0,84,29.76,10.0,SSW,9.2,-,N/A,Thunderstorm,Mostly Cloudy,200,2012-09-30 05:14:00
12:33 AM,78.8,75.2,89,29.78,3.0,North,13.8,20.7,0.13,Rain-Thunderstorm,Thunderstorms and Rain,350,2012-09-30 05:33:00
12:38 AM,75.2,73.4,94,29.78,2.5,NNW,11.5,20.7,0.21,Rain-Thunderstorm,Heavy Thunderstorms and Rain,340,2012-09-30 05:38:00
12:47 AM,77.0,75.2,94,29.80,1.0,WNW,19.6,35.7,0.57,Rain-Thunderstorm,Heavy Thunderstorms and Rain,300,2012-09-30 05:47:00
12:48 AM,77.0,75.0,94,29.80,1.0,WNW,18.4,35.7,0.62,Rain-Thunderstorm,Heavy Thunderstorms and Rain,300,2012-09-30 05:48:00
12:50 AM,77.0,75.2,94,29.80,0.8,WNW,13.8,35.7,0.11,Rain-Thunderstorm,Heavy Thunderstorms and Rain,300,2012-09-30 05:50:00
1:13 AM,77.0,75.2,94,29.79,2.5,Variable,5.8,-,1.02,Rain-Thunderstorm,Light Thunderstorms and Rain,0,2012-09-30 06:13:00
1:18 AM,75.2,75.2,100,29.80,10.0,South,4.6,-,1.02,Rain-Thunderstorm,Light Thunderstorms and Rain,180,2012-09-30 06:18:00
1:34 AM,77.0,75.2,94,29.77,10.0,Calm,Calm,-,1.02,Thunderstorm,Thunderstorm,0,2012-09-30 06:34:00
1:53 AM,77.0,75.0,94,29.77,10.0,NW,6.9,-,1.02,Thunderstorm,Thunderstorm,320,2012-09-30 06:53:00
2:22 AM,77.0,73.4,89,29.79,10.0,WNW,5.8,-,N/A,,Scattered Clouds,300,2012-09-30 07:22:00
2:53 AM,75.9,71.1,85,29.80,10.0,NW,6.9,-,N/A,,Clear,310,2012-09-30 07:53:00
3:53 AM,73.0,66.0,79,29.78,10.0,NW,10.4,-,N/A,,Clear,320,2012-09-30 08:53:00
4:53 AM,72.0,66.0,81,29.80,10.0,NW,6.9,-,N/A,,Clear,310,2012-09-30 09:53:00
5:53 AM,72.0,64.9,78,29.81,10.0,NW,9.2,-,N/A,,Partly Cloudy,310,2012-09-30 10:53:00
6:53 AM,72.0,64.9,78,29.84,10.0,WNW,6.9,-,N/A,,Mostly Cloudy,290,2012-09-30 11:53:00
7:53 AM,72.0,64.9,78,29.84,10.0,WNW,10.4,-,N/A,,Clear,290,2012-09-30 12:53:00
8:53 AM,73.9,66.0,76,29.86,10.0,WNW,12.7,17.3,N/A,,Clear,290,2012-09-30 13:53:00
9:53 AM,75.9,66.0,71,29.87,10.0,NW,11.5,21.9,N/A,,Partly Cloudy,310,2012-09-30 14:53:00
10:06 AM,75.2,66.2,73,29.88,10.0,NW,11.5,-,N/A,,Mostly Cloudy,310,2012-09-30 15:06:00
10:14 AM,78.8,64.4,61,29.88,10.0,NW,17.3,21.9,N/A,,Scattered Clouds,320,2012-09-30 15:14:00
10:53 AM,80.1,64.9,60,29.87,10.0,NW,16.1,23.0,N/A,,Clear,320,2012-09-30 15:53:00
11:53 AM,82.0,66.0,58,29.86,10.0,NW,17.3,21.9,N/A,,Partly Cloudy,320,2012-09-30 16:53:00
12:53 PM,84.0,66.0,55,29.84,10.0,WNW,18.4,24.2,N/A,,Clear,290,2012-09-30 17:53:00
1:53 PM,86.0,64.9,49,29.81,10.0,WNW,13.8,20.7,N/A,,Partly Cloudy,300,2012-09-30 18:53:00
2:53 PM,88.0,64.9,46,29.78,10.0,NNW,11.5,24.2,N/A,,Mostly Cloudy,330,2012-09-30 19:53:00
3:53 PM,91.0,64.9,42,29.77,10.0,NW,12.7,23.0,N/A,,Mostly Cloudy,320,2012-09-30 20:53:00
4:53 PM,90.0,63.0,40,29.76,10.0,NNW,13.8,23.0,N/A,,Mostly Cloudy,340,2012-09-30 21:53:00
5:53 PM,88.0,62.1,42,29.76,10.0,NNW,13.8,23.0,N/A,,Partly Cloudy,340,2012-09-30 22:53:00
6:53 PM,84.9,63.0,48,29.77,10.0,NNW,9.2,19.6,N/A,,Clear,340,2012-09-30 23:53:00
7:53 PM,81.0,64.0,56,29.79,10.0,North,8.1,-,N/A,,Clear,360,2012-10-01 00:53:00
8:53 PM,79.0,64.0,60,29.81,10.0,North,6.9,-,N/A,,Clear,350,2012-10-01 01:53:00
9:53 PM,77.0,64.0,64,29.83,10.0,NNW,6.9,-,N/A,,Clear,340,2012-10-01 02:53:00
10:53 PM,73.9,64.0,71,29.84,10.0,North,4.6,-,N/A,,Clear,350,2012-10-01 03:53:00
11:53 PM,73.0,64.0,73,29.84,10.0,NNW,3.5,-,N/A,,Clear,330,2012-10-01 04:53:00